Powrót do katalogu

STARLINK-11271

AktywnyŁącznośćVLEO
NORAD 60915·PAYLOAD·🇺🇸 United States

Wystrzelony Aug 31, 2024 z Cape Canaveral Space Force Station

Loading…

Następne Przeloty (najbliższe 24 godziny)

TLE

ŚwieżeSource: CelesTrak SupGP

Epoka: Sep 14, 2026, 22:57 UTC

1 60915C 24154N   26257.95673611  .00058472  00000+0  48164-3 0  2575
2 60915  53.1565 278.0396 0001027  98.8464 262.6472 15.69680824    11

Śledź STARLINK-11271 w czasie rzeczywistym z AllMySat

Download on the App Store